This is the latest recevied weather packets stored in our database for station/object KF0ZH. If no packets are shown the sender has not sent any weather packets the latest 10 day(s).
| Time | Temp. | Humidity | Pressure | Rain* | Wind** | Luminosity | Snow |
|---|---|---|---|---|---|---|---|
| 1778098917 | 6.67° C | 63% | 1015.7 hPa | 0 mm | 1.79 m/s, 296° | - | - |
| 1778098616 | 6.67° C | 63% | 1015.6 hPa | 0 mm | 0 m/s | - | - |
| 1778098319 | 7.22° C | 63% | 1015.5 hPa | 0 mm | 0 m/s | - | - |
| 1778098023 | 7.22° C | 63% | 1015.7 hPa | 0 mm | 1.79 m/s, 337° | - | - |
| 1778097724 | 6.67° C | 65% | 1015.7 hPa | 0 mm | 0 m/s | - | - |
| 1778097417 | 6.67° C | 65% | 1015.7 hPa | 0 mm | 0 m/s | - | - |
| 1778097163 | 6.67° C | 66% | 1015.7 hPa | 0 mm | 2.24 m/s, 246° | - | - |
| 1778097128 | 6.67° C | 66% | 1015.7 hPa | 0 mm | 2.24 m/s, 246° | - | - |
| 1778096817 | 6.67° C | 66% | 1015.7 hPa | 0 mm | 2.24 m/s, 243° | - | - |
| 1778096518 | 6.11° C | 65% | 1015.8 hPa | 0 mm | 1.34 m/s, 240° | - | - |
| 1778095916 | 6.11° C | 66% | 1015.7 hPa | 0 mm | 3.58 m/s, 352° | - | - |
| 1778095616 | 6.67° C | 65% | 1015.8 hPa | 0 mm | 0 m/s | - | - |
| 1778095317 | 6.67° C | 65% | 1015.8 hPa | 0 mm | 1.34 m/s, 270° | - | - |
| 1778095016 | 6.67° C | 64% | 1015.8 hPa | 0 mm | 2.68 m/s, 247° | - | - |
| 1778094718 | 6.67° C | 64% | 1015.8 hPa | 0 mm | 2.24 m/s, 295° | - | - |
| 1778094416 | 6.11° C | 66% | 1015.7 hPa | 0 mm | 0 m/s | - | - |
| 1778094117 | 6.11° C | 66% | 1015.7 hPa | 0 mm | 2.68 m/s, 241° | - | - |
| 1778093520 | 6.11° C | 67% | 1015.8 hPa | 0 mm | 2.24 m/s, 326° | - | - |
| 1778093216 | 6.11° C | 67% | 1015.9 hPa | 0 mm | 0 m/s | - | - |
| 1778092918 | 5.56° C | 66% | 1015.9 hPa | 0 mm | 1.34 m/s, 286° | - | - |
| 1778092617 | 6.11° C | 66% | 1015.9 hPa | 0 mm | 4.92 m/s, 306° | - | - |
| 1778092018 | 6.11° C | 64% | 1016 hPa | 0 mm | 1.79 m/s, 284° | - | - |
| 1778091784 | 6.11° C | 66% | 1016 hPa | 0 mm | 0.45 m/s, 298° | - | - |
| 1778091719 | 6.11° C | 66% | 1016 hPa | 0 mm | 0.45 m/s, 298° | - | - |
| 1778091417 | 5.56° C | 66% | 1016 hPa | 0 mm | 0 m/s | - | - |
* Rain latest hour (hover to see other rain measurements)
** Current wind speed in m/s (hover to see current wind gust speed)